Retour au catalogue

USA 133

ActifNavigationHEO
NORAD 25017·PAYLOAD·🇺🇸 United States

Lancé Oct 24, 1997 depuis Vandenberg Space Force Base

Loading…

Prochains Passages (prochaines 24 heures)

TLE

PériméSource: Space-Track

Époque: Nov 30, 1997, 09:16 UTC

1 25017U 97064A   97334.38665906  .00079636 -30957-6  38009-3 0  9995
2 25017 034.5124 028.6818 3942148 277.6608 040.4643 07.71857302 30033

Suivez USA 133 en temps réel avec AllMySat

Download on the App Store